User: anonymous   Login
Location: Unspecified
(0.0000°N, 0.0000°E)
Time: 16:43:47
(UTC+02:00)
Language:

ATLAS 5 CENTAUR R/B - Orbit

View from above orbital plane
View from above orbital plane
View from above satellite
View from above satellite

Ground track
Ground track

The orbit data is extracted from the following two-line orbital elements,

1 31702U 07027B   17113.82088816 0.00000400  00000-0  13419-3 0    01
2 31702  63.3682  21.2873 0269315   3.1751 356.8249 14.18563819    02
Epoch (UTC): 23 April 2017 19:42:04
Eccentricity: 0.0269315
inclination: 63.3682°
perigee height: 636 km
apogee height: 1024 km
right ascension of ascending node: 21.2873°
argument of perigee: 3.1751°
revolutions per day: 14.18563819
mean anomaly at epoch: 356.8249°
orbit number at epoch: 0

The dashed part of the orbit path shows where the satellite is in the earth's shadow,  

DLR